SCP
0 0 1 0 0 0 -0 -0 -0 -0 -0 -0 -0 -0 -0 -0 -0 -0 -0 -0 -0 -0 -0 -0 -0 -0 -0 -0 -0 -0 -0 0 0 0 0 0 0 0 0 0 0 0 0
0 -0 1 1 0 0 0 -0 -0 -0 -0 -0 -0 -0 -0 -0 -0 -0 -0 -0 -0 -0 -0 -0 -0 -0 -0 -0 -0 -0 0 0 0 0 0 0 0 0 0 0 0 0 0
0 0 0 1 0 0 0 -0 -0 -0 -0 -0 -0 -0 -0 -0 -0 -0 -0 -0 -0 -0 -0 -0 -0 -0 -0 -0 -0 -0 0 0 0 0 -0 0 0 0 0 0 0 0 0
0 0 0 0 0 0 0 -0 -0 -0 -0 -0 -0 -0 -0 -0 -0 -0 -0 -0 -0 -0 -0 -0 -0 -0 -0 -0 -0 0 0 0 0 0 0 0 0 0 0 0 0 0 0
0 -0 -0 0 0 0 0 -0 -0 -0 -0 -0 -0 -0 -0 -0 -0 -0 -0 -0 -0 -0 -0 -0 -0 -0 -0 -0 0 0 0 0 0 -0 0 0 0 0 0 0 0 0 0
0 0 -0 0 0 0 0 0 -0 -0 -0 -0 -0 0 0 0 -0 -0 -0 -0 -0 -0 -0 -0 -0 -0 -0 0 0 0 0 0 -0 0 0 0 1 0 0 0 0 0 0
1 1 0 0 0 0 0 0 0 -0 -0 -0 -0 -0 0 0 0 0 -0 -0 -0 -0 -0 -0 -0 0 -0 0 0 0 0 0 0 0 0 0 0 0 0 0 0 0 0
2 1 1 0 0 0 0 0 0 0 0 0 -0 -0 0 0 0 0 0 -0 -0 -0 -0 -0 -0 0 0 0 0 0 0 0 -0 0 0 1 0 0 0 0 0 0 0
2 2 1 0 1 1 0 0 0 0 0 0 0 0 0 0 0 0 0 -0 -0 -0 -0 -0 0 0 0 0 0 0 0 -0 -0 0 -0 1 0 0 0 0 0 0 0
1 2 1 1 1 1 1 1 1 1 1 0 0 0 0 0 0 0 0 0 0 0 0 0 0 0 0 0 0 0 0 -0 -0 0 0 0 0 0 0 0 0 0 0
1 1 1 1 1 0 0 0 1 1 1 1 0 0 0 0 0 0 0 0 0 0 0 0 0 0 0 0 0 0 0 0 0 0 1 0 0 0 0 0 0 0 0
1 1 1 1 1 0 0 0 0 0 0 0 0 0 0 0 0 0 0 0 0 0 0 0 0 0 0 0 0 0 0 0 0 0 0 0 0 0 0 0 0 0 0
0 2 2 2 3 1 1 1 0 0 0 0 0 0 0 0 0 0 0 0 0 0 0 0 0 0 0 0 0 0 0 0 0 0 0 0 0 0 0 0 0 0 0
0 1 1 2 5 1 2 1 0 0 0 0 0 0 0 0 0 0 0 0 0 0 0 0 0 0 0 0 0 0 0 0 -0 0 0 0 0 0 0 0 0 0 0
0 0 1 2 3 3 4 2 1 1 0 0 0 0 0 0 1 0 0 0 0 0 0 0 0 0 0 0 0 0 0 0 0 1 0 0 0 0 0 0 0 0 0
0 0 1 1 2 2 4 3 2 1 1 0 0 0 0 0 1 0 0 0 0 0 0 0 0 0 0 0 0 0 0 0 0 0 0 0 0 0 0 0 0 0 0
0 0 0 2 1 2 3 5 3 1 1 1 0 1 0 0 1 0 0 0 0 0 0 0 0 0 0 0 0 0 0 0 1 1 1 0 0 0 0 0 0 0 0
0 0 0 0 2 2 3 4 3 2 1 1 1 1 0 0 1 1 0 0 0 0 0 0 0 0 0 0 0 0 1 1 1 0 1 0 0 0 0 0 0 0 0
0 0 0 1 2 3 3 4 3 3 1 1 1 1 1 0 0 0 0 0 1 0 0 0 0 0 0 0 0 2 1 1 1 1 0 0 0 0 0 0 0 0 0
0 0 0 0 3 4 4 4 3 4 2 1 1 1 1 0 0 1 0 0 0 0 0 0 0 0 0 0 0 0 1 1 1 1 0 0 0 0 0 0 0 0 0
0 0 0 0 3 5 5 5 3 3 3 3 2 2 2 0 0 1 0 1 1 0 0 1 1 1 0 1 0 0 0 0 0 0 0 0 0 0 0 0 0 0 0
0 0 0 0 1 4 5 6 6 4 3 4 3 3 2 1 1 1 1 1 1 0 2 2 2 0 0 1 0 0 1 0 0 0 0 0 0 0 0 0 0 0 0
0 0 0 1 1 2 4 5 6 4 7 4 7 4 2 2 2 2 1 1 2 1 1 2 1 1 0 0 0 0 0 1 0 0 0 0 0 0 0 0 0 0 0
0 0 0 0 1 2 4 5 5 5 6 4 5 4 3 3 2 2 2 3 3 2 2 2 1 1 1 1 0 0 1 1 0 0 0 0 0 0 0 0 0 0 0
0 0 0 1 1 2 3 3 6 5 6 6 5 5 3 4 3 1 2 3 3 1 5 3 2 1 1 1 1 0 0 0 0 0 0 0 0 0 0 0 0 0 0
0 0 0 1 2 2 3 2 3 3 4 4 3 4 3 2 2 2 2 4 4 3 4 2 2 1 3 1 1 0 0 0 0 0 0 0 0 0 0 0 0 0 0
Wind_Speed_500mb
6 19 45 50 43 39 34 31 35 34 29 25 28 35 38 38 40 41 43 46 48 44 36 28 23 23 21 22 21 23 21 17 14 15 19 25 23 24 25 26 23 16 24
2 20 51 46 43 40 36 31 35 36 31 25 29 35 39 39 40 40 42 45 46 41 34 25 22 21 19 19 18 19 16 11 11 13 20 19 17 26 24 29 31 29 28
5 28 54 48 43 40 37 31 34 37 35 28 30 36 36 38 39 40 41 43 44 38 32 25 21 18 17 16 15 15 11 7 10 17 20 7 5 25 25 30 30 29 30
13 27 55 51 44 40 37 32 33 39 36 31 31 35 37 38 39 40 40 41 40 36 29 23 16 15 15 16 13 11 7 5 10 15 12 8 6 24 25 29 26 26 31
17 28 46 53 47 43 38 33 32 41 39 34 33 35 37 38 40 40 40 40 38 33 27 22 18 15 15 14 12 8 5 4 14 15 19 7 10 20 23 23 24 30 34
13 23 45 54 49 44 39 36 34 43 40 37 34 35 38 41 42 41 40 38 35 31 27 23 19 16 15 14 12 9 6 3 7 5 10 13 15 19 19 20 23 33 42
13 32 36 50 51 45 42 39 37 42 42 39 35 35 39 42 42 42 41 37 33 29 26 23 20 18 16 13 12 10 9 3 2 9 10 3 18 15 18 23 30 37 46
16 27 40 46 55 49 44 41 38 40 43 41 37 36 39 42 43 42 41 39 33 28 27 24 21 18 16 14 14 12 10 7 7 10 7 17 25 16 19 26 32 39 46
21 27 31 44 59 51 46 43 41 41 43 41 38 37 38 41 42 42 40 37 33 31 29 25 22 20 17 15 14 13 11 7 7 7 8 21 17 19 21 27 32 39 43
20 37 27 39 54 54 50 46 44 43 43 42 40 38 39 39 42 42 39 36 33 31 28 25 22 19 17 15 12 13 9 8 4 11 21 21 27 23 23 27 32 38 42
25 24 35 39 43 44 42 52 48 46 44 43 41 41 38 39 42 43 38 35 33 29 26 23 20 16 15 13 12 11 10 9 19 12 21 25 28 21 23 28 32 37 40
19 33 35 49 47 46 41 47 51 50 48 47 47 46 40 33 37 34 40 37 35 32 27 23 19 17 15 12 9 10 12 10 12 15 27 19 27 24 24 28 31 35 39
22 37 39 45 55 50 45 41 42 41 41 44 43 46 41 37 36 36 35 42 39 34 28 25 22 21 16 13 17 11 11 13 14 22 23 24 29 25 25 28 30 34 36
26 28 43 50 50 54 52 44 44 43 43 43 44 47 46 44 41 40 32 32 31 28 23 21 19 15 18 24 19 18 15 14 14 18 20 22 28 26 28 27 29 32 33
28 32 35 54 66 60 56 47 47 46 45 43 44 46 45 44 45 41 36 31 29 28 24 26 22 24 24 20 19 16 15 16 18 21 36 20 29 29 26 25 28 30 31
37 37 39 45 64 65 64 55 55 51 47 46 43 44 49 45 46 39 38 34 32 29 26 23 22 23 20 19 18 17 16 15 17 27 20 29 30 32 27 27 27 27 28
43 49 47 46 50 67 76 62 58 52 49 48 44 48 52 48 47 39 36 34 32 29 26 25 24 23 17 18 19 16 14 18 24 14 19 32 17 26 24 29 29 28 28
46 48 55 50 56 58 76 71 61 53 51 48 46 46 51 50 44 46 37 33 31 29 26 24 24 21 20 19 18 16 17 16 14 12 22 17 22 26 23 24 33 32 32
46 50 50 58 53 63 72 74 66 58 55 49 47 46 50 49 45 43 36 33 35 29 26 26 24 23 22 21 19 24 16 23 16 20 17 21 14 14 23 28 30 34 29
47 51 55 51 57 62 70 76 73 61 57 51 50 48 55 51 49 46 37 36 39 29 28 28 28 26 23 21 22 17 13 10 16 22 18 14 21 11 13 16 25 30 33
51 47 53 58 54 62 70 77 76 71 65 58 53 54 53 49 52 52 39 41 39 34 32 35 30 27 24 20 18 16 16 21 20 11 11 10 12 12 11 14 17 17 24
56 49 56 60 62 58 74 77 80 76 67 64 55 56 53 53 59 55 50 44 39 34 39 34 33 27 25 22 21 20 15 17 14 4 7 7 10 9 13 11 7 22 12
61 53 54 58 58 62 60 72 74 70 74 62 59 56 58 55 59 59 57 46 42 40 34 41 37 34 25 20 26 17 9 7 10 10 10 5 16 4 11 9 7 10 14
67 61 46 49 48 52 56 66 73 75 72 72 68 58 55 59 59 59 54 56 52 51 37 35 35 32 32 21 18 20 22 16 14 8 7 9 6 5 9 1 9 13 19
68 63 50 50 48 51 54 62 69 74 70 65 63 61 56 59 61 57 56 52 48 42 37 32 35 36 24 21 19 13 12 11 14 17 11 9 7 8 1 5 16 12 19
65 67 56 52 49 48 51 49 61 67 65 65 68 59 59 54 57 61 55 57 52 45 37 37 37 32 29 27 15 14 8 9 7 8 8 12 6 9 2 3 8 12 18
Wind_Direction_500mb
86 188 170 168 169 169 169 172 180 175 173 170 164 162 157 156 157 154 153 153 154 151 148 147 146 148 139 141 138 135 129 114 89 70 52 39 24 23 22 25 29 13 355
193 218 176 176 172 172 172 171 183 181 176 176 170 165 160 161 162 159 159 157 157 155 153 151 150 150 150 151 149 145 136 103 70 55 35 25 25 358 5 11 12 9 3
168 206 182 180 177 177 174 175 183 186 181 177 172 166 163 164 166 165 164 162 162 162 161 155 151 165 169 165 163 158 146 81 51 60 48 32 345 336 353 5 11 8 2
156 181 185 183 180 182 179 177 186 187 187 180 171 169 166 166 169 170 168 168 169 169 171 177 177 176 180 179 172 172 159 82 55 47 44 108 318 323 348 1 5 9 6
166 208 188 185 184 185 183 182 187 190 188 183 176 170 170 170 171 174 172 173 175 179 186 189 193 194 191 192 195 194 184 68 40 60 1 70 351 311 347 359 347 356 359
193 212 203 189 187 187 185 187 188 190 191 184 180 174 173 174 174 177 175 175 179 185 191 194 202 206 203 207 214 215 208 76 54 7 338 332 271 309 335 341 347 355 357
187 203 210 197 190 190 187 191 190 192 190 188 185 179 178 178 180 181 179 180 184 190 194 201 207 209 213 221 231 230 236 218 3 340 306 264 280 311 334 336 350 353 354
159 210 214 210 192 191 191 193 192 192 193 192 189 185 183 183 185 185 187 190 193 197 198 203 207 212 220 226 241 246 249 256 197 296 284 257 296 305 329 341 348 351 352
176 202 214 207 191 192 195 196 195 194 195 196 196 192 189 188 189 191 194 197 200 198 198 206 213 217 226 229 237 248 250 244 159 259 277 252 288 311 332 339 343 348 346
190 216 184 183 189 192 196 197 198 198 198 200 201 198 194 194 194 197 198 199 204 204 205 212 216 217 225 230 239 244 234 205 202 268 239 248 294 300 330 336 338 344 346
188 199 187 189 189 184 191 197 197 201 201 202 202 201 198 198 197 199 197 203 205 207 207 215 219 221 232 237 240 236 221 233 258 273 264 256 304 304 324 328 337 341 348
219 189 198 188 193 186 190 199 194 198 199 198 200 201 198 192 193 194 209 203 208 208 215 220 224 226 232 236 251 240 233 264 274 271 270 282 304 306 317 325 332 340 348
225 213 190 193 197 189 193 195 188 190 189 190 193 202 185 193 191 190 213 210 213 216 222 224 231 235 230 201 239 260 267 262 287 256 268 278 299 304 314 316 326 337 346
236 223 217 197 195 191 194 194 191 192 190 187 191 200 182 190 199 193 205 203 203 222 208 238 228 227 224 225 222 241 251 262 291 271 286 287 293 302 309 314 324 333 343
247 228 226 208 196 192 197 193 194 194 193 190 190 194 188 192 199 195 202 202 210 211 212 219 213 229 229 225 231 242 252 263 270 291 278 283 305 302 301 309 321 329 338
238 233 225 223 207 195 196 197 195 194 197 192 193 196 189 193 207 197 200 199 210 207 214 214 222 228 218 226 237 240 255 264 266 274 282 284 303 311 304 305 315 326 335
241 231 224 219 223 208 196 199 196 199 197 194 196 199 189 192 213 193 201 201 206 207 205 209 217 216 218 222 234 241 257 263 256 252 291 301 304 305 311 313 313 321 328
243 230 238 220 225 222 204 201 201 201 200 198 196 198 196 197 205 189 202 201 205 204 207 206 211 212 219 228 238 242 260 232 271 285 254 305 311 312 310 307 315 321 328
241 235 233 228 214 228 218 204 201 203 199 201 197 199 202 197 197 193 199 203 203 204 207 205 210 210 219 232 242 252 255 278 277 281 286 266 263 276 306 315 322 331 332
238 232 226 228 212 226 220 211 205 204 201 202 200 200 213 195 194 198 197 201 203 202 210 208 208 216 219 229 240 255 228 248 269 276 286 299 278 254 269 297 326 319 332
233 231 225 219 214 222 212 214 212 206 200 203 202 200 209 196 194 207 191 202 208 201 207 213 213 211 221 224 221 253 261 276 276 251 270 270 265 286 273 292 322 302 331
231 226 226 218 222 214 219 216 215 208 201 203 202 200 203 192 196 209 187 203 214 204 202 210 206 212 215 218 215 254 247 249 252 239 264 275 271 271 286 290 289 308 282
226 223 222 226 223 222 220 218 216 215 204 202 200 196 202 197 199 207 197 197 208 197 207 211 208 203 216 224 230 253 265 286 180 255 335 227 271 277 250 291 312 318 338
226 223 222 223 223 220 213 220 212 211 209 206 200 203 205 195 198 204 203 194 206 194 213 222 208 210 209 226 235 242 245 256 284 238 238 295 333 17 277 146 339 341 350
220 222 216 214 217 212 216 218 212 213 220 212 201 204 203 201 201 206 207 197 208 197 205 211 212 217 222 229 212 238 253 259 260 255 287 222 230 184 215 24 353 346 332
218 215 213 209 214 215 214 216 214 218 220 219 208 207 196 201 199 203 201 204 203 204 206 204 213 212 196 215 219 217 235 225 251 251 285 300 288 231 246 306 1 331 342
Wind_Speed_850mb
6 19 45 50 43 39 34 31 35 34 29 25 28 35 38 38 40 41 43 46 48 44 36 28 23 23 21 22 21 23 21 17 14 15 19 25 23 24 25 26 23 16 24
2 20 51 46 43 40 36 31 35 36 31 25 29 35 39 39 40 40 42 45 46 41 34 25 22 21 19 19 18 19 16 11 11 13 20 19 17 26 24 29 31 29 28
5 28 54 48 43 40 37 31 34 37 35 28 30 36 36 38 39 40 41 43 44 38 32 25 21 18 17 16 15 15 11 7 10 17 20 7 5 25 25 30 30 29 30
13 27 55 51 44 40 37 32 33 39 36 31 31 35 37 38 39 40 40 41 40 36 29 23 16 15 15 16 13 11 7 5 10 15 12 8 6 24 25 29 26 26 31
17 28 46 53 47 43 38 33 32 41 39 34 33 35 37 38 40 40 40 40 38 33 27 22 18 15 15 14 12 8 5 4 14 15 19 7 10 20 23 23 24 30 34
13 23 45 54 49 44 39 36 34 43 40 37 34 35 38 41 42 41 40 38 35 31 27 23 19 16 15 14 12 9 6 3 7 5 10 13 15 19 19 20 23 33 42
13 32 36 50 51 45 42 39 37 42 42 39 35 35 39 42 42 42 41 37 33 29 26 23 20 18 16 13 12 10 9 3 2 9 10 3 18 15 18 23 30 37 46
16 27 40 46 55 49 44 41 38 40 43 41 37 36 39 42 43 42 41 39 33 28 27 24 21 18 16 14 14 12 10 7 7 10 7 17 25 16 19 26 32 39 46
21 27 31 44 59 51 46 43 41 41 43 41 38 37 38 41 42 42 40 37 33 31 29 25 22 20 17 15 14 13 11 7 7 7 8 21 17 19 21 27 32 39 43
20 37 27 39 54 54 50 46 44 43 43 42 40 38 39 39 42 42 39 36 33 31 28 25 22 19 17 15 12 13 9 8 4 11 21 21 27 23 23 27 32 38 42
25 24 35 39 43 44 42 52 48 46 44 43 41 41 38 39 42 43 38 35 33 29 26 23 20 16 15 13 12 11 10 9 19 12 21 25 28 21 23 28 32 37 40
19 33 35 49 47 46 41 47 51 50 48 47 47 46 40 33 37 34 40 37 35 32 27 23 19 17 15 12 9 10 12 10 12 15 27 19 27 24 24 28 31 35 39
22 37 39 45 55 50 45 41 42 41 41 44 43 46 41 37 36 36 35 42 39 34 28 25 22 21 16 13 17 11 11 13 14 22 23 24 29 25 25 28 30 34 36
26 28 43 50 50 54 52 44 44 43 43 43 44 47 46 44 41 40 32 32 31 28 23 21 19 15 18 24 19 18 15 14 14 18 20 22 28 26 28 27 29 32 33
28 32 35 54 66 60 56 47 47 46 45 43 44 46 45 44 45 41 36 31 29 28 24 26 22 24 24 20 19 16 15 16 18 21 36 20 29 29 26 25 28 30 31
37 37 39 45 64 65 64 55 55 51 47 46 43 44 49 45 46 39 38 34 32 29 26 23 22 23 20 19 18 17 16 15 17 27 20 29 30 32 27 27 27 27 28
43 49 47 46 50 67 76 62 58 52 49 48 44 48 52 48 47 39 36 34 32 29 26 25 24 23 17 18 19 16 14 18 24 14 19 32 17 26 24 29 29 28 28
46 48 55 50 56 58 76 71 61 53 51 48 46 46 51 50 44 46 37 33 31 29 26 24 24 21 20 19 18 16 17 16 14 12 22 17 22 26 23 24 33 32 32
46 50 50 58 53 63 72 74 66 58 55 49 47 46 50 49 45 43 36 33 35 29 26 26 24 23 22 21 19 24 16 23 16 20 17 21 14 14 23 28 30 34 29
47 51 55 51 57 62 70 76 73 61 57 51 50 48 55 51 49 46 37 36 39 29 28 28 28 26 23 21 22 17 13 10 16 22 18 14 21 11 13 16 25 30 33
51 47 53 58 54 62 70 77 76 71 65 58 53 54 53 49 52 52 39 41 39 34 32 35 30 27 24 20 18 16 16 21 20 11 11 10 12 12 11 14 17 17 24
56 49 56 60 62 58 74 77 80 76 67 64 55 56 53 53 59 55 50 44 39 34 39 34 33 27 25 22 21 20 15 17 14 4 7 7 10 9 13 11 7 22 12
61 53 54 58 58 62 60 72 74 70 74 62 59 56 58 55 59 59 57 46 42 40 34 41 37 34 25 20 26 17 9 7 10 10 10 5 16 4 11 9 7 10 14
67 61 46 49 48 52 56 66 73 75 72 72 68 58 55 59 59 59 54 56 52 51 37 35 35 32 32 21 18 20 22 16 14 8 7 9 6 5 9 1 9 13 19
68 63 50 50 48 51 54 62 69 74 70 65 63 61 56 59 61 57 56 52 48 42 37 32 35 36 24 21 19 13 12 11 14 17 11 9 7 8 1 5 16 12 19
65 67 56 52 49 48 51 49 61 67 65 65 68 59 59 54 57 61 55 57 52 45 37 37 37 32 29 27 15 14 8 9 7 8 8 12 6 9 2 3 8 12 18
Wind_Direction_850mb
86 188 170 168 169 169 169 172 180 175 173 170 164 162 157 156 157 154 153 153 154 151 148 147 146 148 139 141 138 135 129 114 89 70 52 39 24 23 22 25 29 13 355
193 218 176 176 172 172 172 171 183 181 176 176 170 165 160 161 162 159 159 157 157 155 153 151 150 150 150 151 149 145 136 103 70 55 35 25 25 358 5 11 12 9 3
168 206 182 180 177 177 174 175 183 186 181 177 172 166 163 164 166 165 164 162 162 162 161 155 151 165 169 165 163 158 146 81 51 60 48 32 345 336 353 5 11 8 2
156 181 185 183 180 182 179 177 186 187 187 180 171 169 166 166 169 170 168 168 169 169 171 177 177 176 180 179 172 172 159 82 55 47 44 108 318 323 348 1 5 9 6
166 208 188 185 184 185 183 182 187 190 188 183 176 170 170 170 171 174 172 173 175 179 186 189 193 194 191 192 195 194 184 68 40 60 1 70 351 311 347 359 347 356 359
193 212 203 189 187 187 185 187 188 190 191 184 180 174 173 174 174 177 175 175 179 185 191 194 202 206 203 207 214 215 208 76 54 7 338 332 271 309 335 341 347 355 357
187 203 210 197 190 190 187 191 190 192 190 188 185 179 178 178 180 181 179 180 184 190 194 201 207 209 213 221 231 230 236 218 3 340 306 264 280 311 334 336 350 353 354
159 210 214 210 192 191 191 193 192 192 193 192 189 185 183 183 185 185 187 190 193 197 198 203 207 212 220 226 241 246 249 256 197 296 284 257 296 305 329 341 348 351 352
176 202 214 207 191 192 195 196 195 194 195 196 196 192 189 188 189 191 194 197 200 198 198 206 213 217 226 229 237 248 250 244 159 259 277 252 288 311 332 339 343 348 346
190 216 184 183 189 192 196 197 198 198 198 200 201 198 194 194 194 197 198 199 204 204 205 212 216 217 225 230 239 244 234 205 202 268 239 248 294 300 330 336 338 344 346
188 199 187 189 189 184 191 197 197 201 201 202 202 201 198 198 197 199 197 203 205 207 207 215 219 221 232 237 240 236 221 233 258 273 264 256 304 304 324 328 337 341 348
219 189 198 188 193 186 190 199 194 198 199 198 200 201 198 192 193 194 209 203 208 208 215 220 224 226 232 236 251 240 233 264 274 271 270 282 304 306 317 325 332 340 348
225 213 190 193 197 189 193 195 188 190 189 190 193 202 185 193 191 190 213 210 213 216 222 224 231 235 230 201 239 260 267 262 287 256 268 278 299 304 314 316 326 337 346
236 223 217 197 195 191 194 194 191 192 190 187 191 200 182 190 199 193 205 203 203 222 208 238 228 227 224 225 222 241 251 262 291 271 286 287 293 302 309 314 324 333 343
247 228 226 208 196 192 197 193 194 194 193 190 190 194 188 192 199 195 202 202 210 211 212 219 213 229 229 225 231 242 252 263 270 291 278 283 305 302 301 309 321 329 338
238 233 225 223 207 195 196 197 195 194 197 192 193 196 189 193 207 197 200 199 210 207 214 214 222 228 218 226 237 240 255 264 266 274 282 284 303 311 304 305 315 326 335
241 231 224 219 223 208 196 199 196 199 197 194 196 199 189 192 213 193 201 201 206 207 205 209 217 216 218 222 234 241 257 263 256 252 291 301 304 305 311 313 313 321 328
243 230 238 220 225 222 204 201 201 201 200 198 196 198 196 197 205 189 202 201 205 204 207 206 211 212 219 228 238 242 260 232 271 285 254 305 311 312 310 307 315 321 328
241 235 233 228 214 228 218 204 201 203 199 201 197 199 202 197 197 193 199 203 203 204 207 205 210 210 219 232 242 252 255 278 277 281 286 266 263 276 306 315 322 331 332
238 232 226 228 212 226 220 211 205 204 201 202 200 200 213 195 194 198 197 201 203 202 210 208 208 216 219 229 240 255 228 248 269 276 286 299 278 254 269 297 326 319 332
233 231 225 219 214 222 212 214 212 206 200 203 202 200 209 196 194 207 191 202 208 201 207 213 213 211 221 224 221 253 261 276 276 251 270 270 265 286 273 292 322 302 331
231 226 226 218 222 214 219 216 215 208 201 203 202 200 203 192 196 209 187 203 214 204 202 210 206 212 215 218 215 254 247 249 252 239 264 275 271 271 286 290 289 308 282
226 223 222 226 223 222 220 218 216 215 204 202 200 196 202 197 199 207 197 197 208 197 207 211 208 203 216 224 230 253 265 286 180 255 335 227 271 277 250 291 312 318 338
226 223 222 223 223 220 213 220 212 211 209 206 200 203 205 195 198 204 203 194 206 194 213 222 208 210 209 226 235 242 245 256 284 238 238 295 333 17 277 146 339 341 350
220 222 216 214 217 212 216 218 212 213 220 212 201 204 203 201 201 206 207 197 208 197 205 211 212 217 222 229 212 238 253 259 260 255 287 222 230 184 215 24 353 346 332
218 215 213 209 214 215 214 216 214 218 220 219 208 207 196 201 199 203 201 204 203 204 206 204 213 212 196 215 219 217 235 225 251 251 285 300 288 231 246 306 1 331 342